Spartanburg, SC

12:18 AM EST on February 14, 2016 (GMT -0500)
Spartanburg Downtown Memorial

Weather History for KSPA - May, 2013

Change the Weather History Date:

Friday, May 3, 2013

  Actual Average (KGSP) Record (KGSP)
Temperature  
Mean Temperature 62 °F 65 °F  
Max Temperature 68 °F 77 °F 91 °F (1959)
Min Temperature 57 °F 53 °F 27 °F (1885)
Degree Days  
Heating Degree Days 2 3  
Month to date heating degree days 9  
Since 1 July heating degree days 3015  
Cooling Degree Days 0 3  
Month to date cooling degree days 7  
Year to date cooling degree days 55  
Growing Degree Days 12 (Base 50)    
Moisture  
Dew Point 56 °F    
Average Humidity 83    
Maximum Humidity 100    
Minimum Humidity 60    
Precipitation  
Precipitation 0.00 in 0.13 in 2.30 in (1896)
Month to date precipitation 0.37  
Year to date precipitation 16.04  
Snow  
Snow 0.00 in 0.00 in 0.00 in ()
Month to date snowfall 0.0  
Since 1 July snowfall 4.7  
Snow Depth -    
Sea Level Pressure  
Sea Level Pressure 30.15 in    
Wind  
Wind Speed 8 mph (ENE)    
Max Wind Speed 16 mph    
Max Gust Speed 22 mph    
Visibility 10 miles    
Events Rain    
T = Trace of Precipitation, MM = Missing Value Source: NWS Daily Summary

Daily Weather History Graph

Daily Weather History Graph

Search for Another Location

Airport or City:

Trip Planner

Search our weather history database for the weather conditions in past years. The results will help you decide how hot, cold, wet, or windy it might be!

Date:

Astronomy

May. 03, 2013 Rise Set
Actual Time 6:34 AM EDT 8:15 PM EDT
Civil Twilight 6:07 AM EDT 8:42 PM EDT
Nautical Twilight 5:34 AM EDT 9:15 PM EDT
Astronomical Twilight 5:00 AM EDT 9:49 PM EDT
Moon 2:43 AM EDT (5/3) 2:22 PM EDT (5/3)
Length of Visible Light 14h 34m
Length of Day
13h 40m
Last Quarter, 37% of the Moon is Illuminated
May 3
Last Quarter
May 9
New
May 18
First Quarter
May 25
Full
May 31
Last Quarter

Hourly Weather History & Observations

Time (EDT) Temp. Dew Point Humidity Pressure Visibility Wind Dir Wind Speed Gust Speed Precip Events Conditions
12:15 AM 60.8 °F 57.2 °F 88% 30.22 in 10.0 mi ENE 10.4 mph - N/A   Overcast
12:35 AM 60.8 °F 57.2 °F 88% 30.22 in 10.0 mi ENE 5.8 mph - N/A   Overcast
12:55 AM 60.8 °F 59.0 °F 94% 30.21 in 7.0 mi ENE 9.2 mph - N/A   Overcast
1:15 AM 59.0 °F 59.0 °F 100% 30.21 in 10.0 mi ENE 10.4 mph - N/A   Overcast
1:55 AM 59.0 °F 59.0 °F 100% 30.20 in 7.0 mi NE 6.9 mph - N/A   Overcast
2:15 AM 59.0 °F 59.0 °F 100% 30.19 in 10.0 mi ENE 8.1 mph - N/A   Overcast
2:35 AM 59.0 °F 59.0 °F 100% 30.18 in 10.0 mi ENE 5.8 mph - N/A   Overcast
2:55 AM 59.0 °F 59.0 °F 100% 30.18 in 10.0 mi ENE 3.5 mph - N/A   Overcast
3:15 AM 59.0 °F 59.0 °F 100% 30.17 in 10.0 mi NE 8.1 mph - N/A   Overcast
3:35 AM 59.0 °F 59.0 °F 100% 30.17 in 10.0 mi NE 4.6 mph - N/A   Overcast
3:55 AM 59.0 °F 59.0 °F 100% 30.17 in 10.0 mi NE 6.9 mph - N/A   Overcast
4:15 AM 59.0 °F 59.0 °F 100% 30.17 in 10.0 mi NE 9.2 mph - N/A   Overcast
4:35 AM 59.0 °F 59.0 °F 100% 30.16 in 10.0 mi NE 5.8 mph - N/A   Overcast
4:55 AM 59.0 °F 59.0 °F 100% 30.16 in 10.0 mi ENE 9.2 mph - N/A   Overcast
5:15 AM 59.0 °F 59.0 °F 100% 30.16 in 10.0 mi NE 6.9 mph - N/A   Mostly Cloudy
5:35 AM 59.0 °F 57.2 °F 94% 30.16 in 10.0 mi ENE 6.9 mph - N/A   Mostly Cloudy
5:55 AM 59.0 °F 57.2 °F 94% 30.16 in 10.0 mi ENE 8.1 mph - N/A   Overcast
6:15 AM 59.0 °F 55.4 °F 88% 30.16 in 10.0 mi ENE 8.1 mph - N/A   Overcast
6:35 AM 59.0 °F 55.4 °F 88% 30.16 in 10.0 mi ENE 8.1 mph - N/A   Overcast
6:55 AM 57.2 °F 55.4 °F 94% 30.17 in 10.0 mi NE 10.4 mph - N/A   Overcast
7:15 AM 59.0 °F 55.4 °F 88% 30.18 in 10.0 mi ENE 10.4 mph - N/A   Mostly Cloudy
7:35 AM 59.0 °F 55.4 °F 88% 30.18 in 10.0 mi ENE 5.8 mph - N/A   Mostly Cloudy
7:55 AM 59.0 °F 53.6 °F 82% 30.18 in 10.0 mi ENE 8.1 mph 16.1 mph N/A   Overcast
8:15 AM 60.8 °F 53.6 °F 77% 30.18 in 10.0 mi NE 12.7 mph 19.6 mph N/A   Mostly Cloudy
8:35 AM 60.8 °F 53.6 °F 77% 30.18 in 10.0 mi ENE 9.2 mph 18.4 mph N/A   Clear
8:55 AM 60.8 °F 53.6 °F 77% 30.18 in 10.0 mi NE 10.4 mph 18.4 mph N/A   Clear
9:15 AM 60.8 °F 51.8 °F 72% 30.19 in 10.0 mi ENE 13.8 mph 17.3 mph N/A   Scattered Clouds
9:35 AM 60.8 °F 53.6 °F 77% 30.18 in 10.0 mi ENE 8.1 mph 16.1 mph N/A   Scattered Clouds
9:55 AM 62.6 °F 53.6 °F 72% 30.19 in 10.0 mi ENE 10.4 mph 18.4 mph N/A   Mostly Cloudy
10:15 AM 62.6 °F 53.6 °F 72% 30.19 in 10.0 mi East 13.8 mph 17.3 mph N/A   Overcast
10:55 AM 62.6 °F 53.6 °F 72% 30.19 in 10.0 mi ENE 10.4 mph 19.6 mph N/A   Overcast
11:15 AM 62.6 °F 53.6 °F 72% 30.19 in 10.0 mi ENE 8.1 mph - N/A   Overcast
11:35 AM 62.6 °F 53.6 °F 72% 30.19 in 10.0 mi NE 11.5 mph - N/A   Overcast
11:55 AM 62.6 °F 53.6 °F 72% 30.19 in 10.0 mi East 11.5 mph 18.4 mph N/A   Overcast
12:15 PM 62.6 °F 53.6 °F 72% 30.20 in 7.0 mi East 16.1 mph 21.9 mph N/A   Overcast
12:35 PM 60.8 °F 55.4 °F 82% 30.20 in 5.0 mi East 12.7 mph 16.1 mph N/A Rain Rain
12:55 PM 59.0 °F 57.2 °F 94% 30.18 in 4.0 mi NE 6.9 mph - N/A   Light Drizzle
1:35 PM 60.8 °F 57.2 °F 88% 30.17 in 10.0 mi NE 5.8 mph - N/A   Overcast
1:55 PM 60.8 °F 57.2 °F 88% 30.16 in 10.0 mi NE 9.2 mph - N/A   Overcast
2:15 PM 62.6 °F 57.2 °F 82% 30.15 in 10.0 mi ENE 10.4 mph - N/A   Overcast
2:35 PM 64.4 °F 57.2 °F 77% 30.14 in 10.0 mi NE 8.1 mph - N/A   Overcast
2:55 PM 64.4 °F 55.4 °F 73% 30.13 in 10.0 mi NE 12.7 mph 17.3 mph N/A   Scattered Clouds
3:15 PM 66.2 °F 55.4 °F 68% 30.13 in 10.0 mi ENE 6.9 mph - N/A   Mostly Cloudy
3:35 PM 66.2 °F 53.6 °F 64% 30.13 in 10.0 mi East 12.7 mph 17.3 mph N/A   Overcast
3:55 PM 68.0 °F 53.6 °F 60% 30.12 in 10.0 mi East 12.7 mph 21.9 mph N/A   Overcast
4:15 PM 66.2 °F 53.6 °F 64% 30.11 in 10.0 mi East 9.2 mph - N/A   Overcast
4:35 PM 68.0 °F 53.6 °F 60% 30.11 in 10.0 mi ENE 8.1 mph - N/A   Overcast
4:55 PM 66.2 °F 53.6 °F 64% 30.10 in 10.0 mi ENE 10.4 mph - N/A   Overcast
5:15 PM 64.4 °F 53.6 °F 68% 30.10 in 10.0 mi ENE 5.8 mph - N/A   Overcast
5:35 PM 66.2 °F 53.6 °F 64% 30.10 in 10.0 mi NE 8.1 mph - N/A   Overcast
5:55 PM 66.2 °F 53.6 °F 64% 30.10 in 10.0 mi ENE 5.8 mph - N/A   Overcast
6:15 PM 62.6 °F 57.2 °F 82% 30.11 in 5.0 mi ESE 8.1 mph - N/A Rain Rain
6:35 PM 60.8 °F 59.0 °F 94% 30.11 in 7.0 mi East 6.9 mph - N/A   Drizzle
6:55 PM 60.8 °F 59.0 °F 94% 30.11 in 10.0 mi East 3.5 mph - N/A   Overcast
7:15 PM 60.8 °F 57.2 °F 88% 30.10 in 10.0 mi NE 5.8 mph - N/A   Overcast
7:35 PM 62.6 °F 55.4 °F 77% 30.09 in 10.0 mi NE 4.6 mph - N/A   Overcast
7:55 PM 62.6 °F 55.4 °F 77% 30.10 in 10.0 mi ENE 3.5 mph - N/A   Overcast
8:15 PM 60.8 °F 55.4 °F 82% 30.10 in 10.0 mi ENE 3.5 mph - N/A   Overcast
8:35 PM 60.8 °F 55.4 °F 82% 30.10 in 10.0 mi NE 3.5 mph - N/A   Overcast
8:55 PM 60.8 °F 55.4 °F 82% 30.10 in 10.0 mi ENE 3.5 mph - N/A   Overcast
9:15 PM 60.8 °F 55.4 °F 82% 30.10 in 10.0 mi NE 4.6 mph - N/A   Overcast
9:35 PM 60.8 °F 55.4 °F 82% 30.10 in 10.0 mi NE 4.6 mph - N/A   Mostly Cloudy
9:55 PM 60.8 °F 55.4 °F 82% 30.10 in 10.0 mi NE 4.6 mph - N/A   Mostly Cloudy
10:15 PM 60.8 °F 55.4 °F 82% 30.10 in 10.0 mi ENE 5.8 mph - N/A   Overcast
10:35 PM 60.8 °F 55.4 °F 82% 30.10 in 10.0 mi NE 4.6 mph - N/A   Mostly Cloudy
10:55 PM 60.8 °F 55.4 °F 82% 30.10 in 10.0 mi NE 5.8 mph - N/A   Scattered Clouds
11:15 PM 60.8 °F 53.6 °F 77% 30.09 in 10.0 mi ENE 6.9 mph - N/A   Scattered Clouds
11:55 PM 60.8 °F 53.6 °F 77% 30.08 in 10.0 mi ENE 6.9 mph - N/A   Mostly Cloudy